Epoch,demod_status_bits,ebno,lock_status,signal_level,viterbi_ber
1663916277,C;S;V;F,13.7,0x00c000,-37.9,0.00e-0
1663916278,C;S;V;F,13.6,0x00c000,-37.6,0.00e-0
1663916279,C;S;V;F,13.8,0x00c000,-37.6,0.00e-0
1663916280,C;S;V;F,13.9,0x00c000,-37.8,
1663916281,C;S;V;F,13.9,0x00c000,-37.6,0.00e-0
1663916282,,13.8,0x00c000,-37.7,0.00e-0
1663916283,C;S;V;F,14.2,0x00c000,-37.3,0.00e-0
1663916284,C;S;V;F,14.4,0x00c000,-37.3,0.00e-0
1663916285,C;S;V;F,,0x00c000,-37.5,0.00e-0
1663916286,C;S;V;F,14.0,0x00c000,-37.1,0.00e-0
1663916287,C;S;V;F,14.5,0x00c000,,0.00e-0
1663916288,C;S;V;F,14.1,0x00c000,-37.2,0.00e-0
1663916289,C;S;V;F,14.4,0x00c000,-37.1,0.00e-0
1663916290,C;S;V;F,14.2,0x00c000,-37.2,0.00e-0
1663916291,C;S;V;F,14.5,0x00c000,-37.0,0.00e-0
1663916292,C;S;V;F,14.7,0x00c000,-37.1,0.00e-0
1663916293,C;S;V;F,14.6,0x00c000,-36.9,0.00e-0
1663916294,C;S;V;F,14.6,0x00c000,-36.9,0.00e-0
1663916295,C;S;V;F,14.5,0x00c000,-36.9,0.00e-0
1663916296,C;S;V;F,14.5,0x00c000,-37.1,
1663916297,,14.9,0x00c000,-36.8,0.00e-0
1663916298,C;S;V;F,14.6,0x00c000,-36.9,0.00e-0
1663916299,C;S;V;F,14.9,0x00c000,-36.9,0.00e-0
1663916300,C;S;V;F,,0x00c000,,0.00e-0
1663916301,C;S;V;F,14.9,0x00c000,-36.9,0.00e-0
1663916302,C;S;V;F,14.9,0x00c000,-36.9,0.00e-0
1663916303,C;S;V;F,14.9,0x00c000,-36.6,0.00e-0
1663916304,C;S;V;F,15.0,0x00c000,-36.8,0.00e-0
1663916305,C;S;V;F,15.0,0x00c000,-36.8,0.00e-0
1663916306,C;S;V;F,15.1,0x00c000,-36.7,0.00e-0
1663916307,C;S;V;F,15.1,0x00c000,-36.7,0.00e-0
1663916308,C;S;V;F,15.1,0x00c000,-36.6,0.00e-0
1663916309,C;S;V;F,15.1,0x00c000,-36.5,
1663916310,,15.2,0x00c000,-36.4,0.00e-0
1663916311,C;S;V;F,15.4,0x00c000,-36.3,0.00e-0
1663916312,C;S;V;F,15.3,0x00c000,-36.4,0.00e-0
1663916313,C;S;V;F,,0x00c000,-36.3,0.00e-0
1663916314,C;S;V;F,15.4,0x00c000,-36.4,0.00e-0
1663916315,C;S;V;F,15.4,0x00c000,,0.00e-0
1663916316,C;S;V;F,15.6,0x00c000,-36.4,0.00e-0
1663916317,C;S;V;F,15.6,0x00c000,-36.3,0.00e-0
1663916318,C;S;V;F,15.6,0x00c000,-36.3,0.00e-0
1663916319,C;S;V;F,15.5,0x00c000,-36.4,0.00e-0
1663916320,C;S;V;F,15.3,0x00c000,-36.3,0.00e-0
1663916321,C;S;V;F,15.4,0x00c000,-36.4,0.00e-0
1663916322,C;S;V;F,15.6,0x00c000,-36.4,
1663916323,,15.5,0x00c000,-36.4,0.00e-0
1663916324,C;S;V;F,15.4,0x00c000,-36.3,0.00e-0
1663916325,C;S;V;F,,0x00c000,-36.5,0.00e-0
1663916326,C;S;V;F,15.5,0x00c000,-36.4,0.00e-0
1663916327,C;S;V;F,15.4,0x00c000,,0.00e-0
1663916328,C;S;V;F,15.3,0x00c000,-36.3,0.00e-0
1663916329,C;S;V;F,15.7,0x00c000,-36.3,0.00e-0
1663916330,C;S;V;F,15.7,0x00c000,-36.4,0.00e-0
1663916331,C;S;V;F,15.6,0x00c000,-36.3,0.00e-0
1663916332,C;S;V;F,15.6,0x00c000,-36.0,0.00e-0
1663916333,C;S;V;F,15.7,0x00c000,-36.1,0.00e-0
1663916334,C;S;V;F,15.9,0x00c000,-36.0,0.00e-0
1663916335,C;S;V;F,16.0,0x00c000,-36.0,
1663916336,,15.8,0x00c000,-35.9,0.00e-0
1663916337,C;S;V;F,15.8,0x00c000,-35.7,0.00e-0
1663916338,C;S;V;F,,,,0.00e-0
1663916339,,,0x00c000,-35.6,
1663916340,C;S;V;F,16.3,0x00c000,,0.00e-0
1663916341,C;S;V;F,16.0,0x00c000,-35.6,0.00e-0
1663916342,C;S;V;F,16.3,0x00c000,-35.6,0.00e-0
1663916343,C;S;V;F,16.2,0x00c000,-35.7,0.00e-0
1663916344,C;S;V;F,16.3,0x00c000,-35.6,0.00e-0
1663916345,C;S;V;F,16.3,0x00c000,-35.6,0.00e-0
1663916346,C;S;V;F,16.3,0x00c000,-35.6,0.00e-0
1663916347,C;S;V;F,16.2,0x00c000,-35.5,
1663916348,,16.2,0x00c000,-35.5,0.00e-0
1663916349,C;S;V;F,16.2,0x00c000,-35.4,0.00e-0
1663916350,C;S;V;F,16.4,0x00c000,-35.6,0.00e-0
1663916351,C;S;V;F,,0x00c000,-35.5,0.00e-0
1663916352,C;S;V;F,16.4,0x00c000,-35.6,0.00e-0
1663916353,C;S;V;F,16.5,0x00c000,,0.00e-0
1663916354,C;S;V;F,16.6,0x00c000,-35.3,0.00e-0
1663916355,C;S;V;F,16.5,0x00c000,-35.6,0.00e-0
1663916356,C;S;V;F,16.5,0x00c000,-35.4,0.00e-0
1663916357,C;S;V;F,16.4,0x00c000,-35.5,0.00e-0
1663916358,C;S;V;F,16.4,0x00c000,-35.5,0.00e-0
1663916359,C;S;V;F,16.4,0x00c000,-35.4,
1663916360,,,,,0.00e-0
1663916364,C;S;V;F,16.3,0x00c000,-35.7,0.00e-0
1663916365,C;S;V;F,16.1,0x00c000,-35.6,0.00e-0
1663916366,C;S;V;F,16.3,0x00c000,-35.7,0.00e-0
1663916367,C;S;V;F,16.1,0x00c000,-36.0,0.00e-0
1663916368,C;S;V;F,16.3,0x00c000,-35.8,0.00e-0
1663916369,C;S;V;F,16.2,0x00c000,-35.8,0.00e-0
1663916370,C;S;V;F,16.1,0x00c000,-35.7,0.00e-0
1663916371,C;S;V;F,16.2,0x00c000,-35.6,0.00e-0
1663916372,,16.4,0x00c000,-35.7,
1663916373,C;S;V;F,16.3,0x00c000,-35.7,0.00e-0
1663916374,C;S;V;F,16.2,0x00c000,-35.7,0.00e-0
1663916375,C;S;V;F,,0x00c000,-35.7,0.00e-0
1663916376,C;S;V;F,16.3,0x00c000,,0.00e-0
1663916377,C;S;V;F,16.3,0x00c000,-35.6,0.00e-0
1663916378,C;S;V;F,16.2,0x00c000,-35.6,0.00e-0
1663916379,C;S;V;F,16.5,0x00c000,-35.6,0.00e-0
1663916380,C;S;V;F,16.5,0x00c000,-35.6,0.00e-0
1663916381,C;S;V;F,16.2,0x00c000,-35.8,0.00e-0
1663916382,C;S;V;F,16.2,0x00c000,-35.6,0.00e-0
1663916383,C;S;V;F,16.3,0x00c000,-35.7,0.00e-0
1663916384,C;S;V;F,16.3,0x00c000,-35.6,0.00e-0
1663916385,C;S;V;F,16.3,0x00c000,-35.7,
1663916386,,16.2,0x00c000,-35.6,0.00e-0
1663916387,C;S;V;F,16.2,0x00c000,-35.7,0.00e-0
1663916388,C;S;V;F,,0x00c000,,0.00e-0
1663916389,C;S;V;F,16.4,0x00c000,-35.6,0.00e-0
1663916390,C;S;V;F,16.3,0x00c000,-35.6,0.00e-0
1663916391,C;S;V;F,16.3,0x00c000,-35.6,0.00e-0
1663916392,C;S;V;F,16.3,0x00c000,-35.6,0.00e-0
1663916393,C;S;V;F,16.4,0x00c000,-35.6,
1663916394,,16.3,0x00c000,-35.8,0.00e-0
1663916395,C;S;V;F,16.5,0x00c000,-35.8,0.00e-0
1663916396,C;S;V;F,16.1,0x00c000,-35.7,0.00e-0
1663916397,C;S;V;F,16.1,0x00c000,-35.6,0.00e-0
1663916398,C;S;V;F,,0x00c000,,0.00e-0
1663916399,C;S;V;F,16.2,0x00c000,-35.7,0.00e-0
1663916400,C;S;V;F,16.2,0x00c000,-35.9,0.00e-0
1663916402,,16.5,0x00c000,-35.6,
1663916403,C;S;V;F,16.4,0x00c000,-35.6,0.00e-0
1663916404,C;S;V;F,,0x00c000,-35.5,0.00e-0
1663916405,C;S;V;F,16.3,0x00c000,-35.5,0.00e-0
1663916406,C;S;V;F,16.4,0x00c000,-35.5,0.00e-0
1663916407,C;S;V;F,16.5,0x00c000,,0.00e-0
1663916408,C;S;V;F,16.5,0x00c000,-35.6,0.00e-0
1663916409,C;S;V;F,16.4,0x00c000,-35.6,0.00e-0
1663916410,C;S;V;F,16.6,0x00c000,-35.5,0.00e-0
1663916411,C;S;V;F,16.5,0x00c000,-35.6,0.00e-0
1663916412,C;S;V;F,16.5,0x00c000,-35.5,0.00e-0
1663916413,C;S;V;F,16.7,0x00c000,-35.6,0.00e-0
1663916414,C;S;V;F,16.6,0x00c000,-35.6,
1663916415,C;S;V;F,16.3,0x00c000,-35.6,0.00e-0
1663916416,,16.6,0x00c000,-35.6,0.00e-0
1663916417,C;S;V;F,16.4,0x00c000,-35.5,0.00e-0
1663916418,C;S;V;F,,0x00c000,-35.5,0.00e-0
1663916419,C;S;V;F,16.5,0x00c000,,0.00e-0
1663916420,C;S;V;F,16.8,0x00c000,-35.5,0.00e-0
1663916421,C;S;V;F,16.6,0x00c000,-35.2,0.00e-0
1663916422,C;S;V;F,16.7,0x00c000,-35.2,0.00e-0
1663916423,C;S;V;F,16.8,0x00c000,-35.2,0.00e-0
1663916424,C;S;V;F,16.8,0x00c000,-35.2,0.00e-0
1663916425,,16.7,0x00c000,-35.1,
1663916426,C;S;V;F,16.8,0x00c000,-35.3,0.00e-0
1663916427,C;S;V;F,16.9,0x00c000,-35.1,0.00e-0
1663916428,C;S;V;F,,0x00c000,-35.0,0.00e-0
1663916429,C;S;V;F,17.0,0x00c000,-35.0,0.00e-0
1663916430,C;S;V;F,16.8,0x00c000,,0.00e-0
1663916431,C;S;V;F,17.2,0x00c000,-34.8,0.00e-0
1663916432,C;S;V;F,17.3,0x00c000,-34.7,0.00e-0
1663916433,C;S;V;F,17.3,0x00c000,-34.6,0.00e-0
1663916434,C;S;V;F,17.7,0x00c000,-34.4,0.00e-0
1663916435,C;S;V;F,17.4,0x00c000,-34.6,0.00e-0
1663916436,C;S;V;F,17.7,0x00c000,-34.3,0.00e-0
1663916437,C;S;V;F,17.4,0x00c000,-34.3,0.00e-0
1663916438,C;S;V;F,17.7,0x00c000,-34.2,0.00e-0
1663916439,C;S;V;F,17.7,0x00c000,-34.2,0.00e-0
1663916440,,17.6,0x00c000,-34.1,
1663916441,C;S;V;F,17.7,0x00c000,-34.0,0.00e-0
1663916442,C;S;V;F,17.8,0x00c000,-34.0,0.00e-0
1663916443,C;S;V;F,17.7,0x00c000,-34.0,0.00e-0
1663916444,C;S;V;F,,0x00c000,-34.1,0.00e-0
1663916445,C;S;V;F,17.6,0x00c000,-34.2,0.00e-0
1663916446,C;S;V;F,17.5,0x00c000,,0.00e-0
1663916447,C;S;V;F,17.9,0x00c000,-34.2,0.00e-0
1663916448,C;S;V;F,17.4,0x00c000,-34.1,0.00e-0
1663916449,C;S;V;F,17.7,0x00c000,-34.2,0.00e-0
1663916450,C;S;V;F,17.7,0x00c000,-34.3,0.00e-0
1663916451,C;S;V;F,17.7,0x00c000,-34.1,0.00e-0
1663916452,C;S;V;F,17.6,0x00c000,-34.0,
1663916453,C;S;V;F,17.9,0x00c000,-34.0,0.00e-0
1663916454,,17.9,0x00c000,-33.9,0.00e-0
1663916455,C;S;V;F,17.8,0x00c000,-33.9,0.00e-0
1663916456,C;S;V;F,17.9,0x00c000,-33.9,0.00e-0
1663916457,C;S;V;F,,0x00c000,-33.9,0.00e-0
1663916458,C;S;V;F,17.8,0x00c000,-34.0,0.00e-0
1663916459,C;S;V;F,17.7,0x00c000,,0.00e-0
1663916460,C;S;V;F,18.0,0x00c000,-34.0,0.00e-0
1663916461,C;S;V;F,17.7,0x00c000,-33.9,0.00e-0
1663916462,C;S;V;F,18.1,0x00c000,-33.9,0.00e-0
1663916464,C;S;V;F,17.9,0x00c000,-33.6,0.00e-0
1663916465,,18.1,0x00c000,-33.6,
1663916466,C;S;V;F,18.0,0x00c000,-33.5,0.00e-0
1663916467,C;S;V;F,18.1,0x00c000,-33.4,0.00e-0
1663916468,C;S;V;F,,0x00c000,-33.3,0.00e-0
1663916469,C;S;V;F,18.1,0x00c000,-33.2,0.00e-0
1663916470,C;S;V;F,18.1,0x00c000,,0.00e-0
1663916471,C;S;V;F,18.1,0x00c000,-33.2,0.00e-0
1663916472,C;S;V;F,17.7,0x00c000,-33.2,0.00e-0
1663916473,C;S;V;F,17.7,0x00c000,-33.3,0.00e-0
1663916474,C;S;V;F,17.8,0x00c000,-33.2,0.00e-0
1663916475,C;S;V;F,18.1,0x00c000,-33.1,
1663916476,,18.2,0x00c000,-32.9,0.00e-0
1663916477,C;S;V;F,18.4,0x00c000,-33.1,0.00e-0
1663916478,C;S;V;F,,0x00c000,,0.00e-0
1663916479,C;S;V;F,18.3,0x00c000,-33.0,0.00e-0
1663916480,C;S;V;F,18.2,0x00c000,-33.1,0.00e-0
1663916481,C;S;V;F,18.3,0x00c000,-33.4,0.00e-0
1663916482,C;S;V;F,18.1,0x00c000,-33.4,
1663916483,C;S;V;F,18.1,0x00c000,-33.7,0.00e-0
1663916484,,18.2,0x00c000,-33.7,0.00e-0
1663916485,C;S;V;F,18.2,0x00c000,-33.7,0.00e-0
1663916486,C;S;V;F,18.1,0x00c000,-33.6,0.00e-0
1663916487,C;S;V;F,,0x00c000,-33.6,0.00e-0
1663916488,C;S;V;F,18.1,0x00c000,-33.6,0.00e-0
1663916489,C;S;V;F,18.1,0x00c000,,0.00e-0
1663916490,C;S;V;F,18.2,0x00c000,-33.4,0.00e-0
1663916491,C;S;V;F,18.2,0x00c000,-33.5,0.00e-0
1663916492,C;S;V;F,18.3,0x00c000,-33.6,0.00e-0
1663916493,C;S;V;F,18.1,0x00c000,-33.6,0.00e-0
1663916494,C;S;V;F,18.1,0x00c000,-33.9,0.00e-0
1663916495,C;S;V;F,18.1,0x00c000,-33.9,0.00e-0
1663916496,C;S;V;F,18.1,0x00c000,-33.9,0.00e-0
1663916497,C;S;V;F,18.0,0x00c000,-33.9,
1663916498,,17.9,0x00c000,-34.0,0.00e-0
1663916499,C;S;V;F,17.8,0x00c000,-34.2,0.00e-0
1663916500,C;S;V;F,,0x00c000,-34.1,0.00e-0
1663916501,C;S;V;F,17.7,0x00c000,,0.00e-0
1663916502,C;S;V;F,17.6,0x00c000,-34.3,0.00e-0
1663916503,C;S;V;F,17.4,0x00c000,-34.8,0.00e-0
1663916504,C;S;V;F,17.2,0x00c000,-34.8,0.00e-0
1663916505,C;S;V;F,17.2,0x00c000,-34.8,0.00e-0
1663916506,C;S;V;F,17.4,0x00c000,-34.8,0.00e-0
1663916507,C;S;V;F,17.2,0x00c000,-34.7,0.00e-0
1663916508,,17.2,0x00c000,-34.8,
1663916509,C;S;V;F,17.1,0x00c000,-34.8,0.00e-0
1663916510,C;S;V;F,17.2,0x00c000,-34.8,0.00e-0
1663916511,C;S;V;F,,0x00c000,-34.8,0.00e-0
1663916512,C;S;V;F,17.1,0x00c000,-34.8,0.00e-0
1663916513,C;S;V;F,17.3,0x00c000,,0.00e-0
1663916514,C;S;V;F,17.2,0x00c000,-34.8,0.00e-0
1663916515,C;S;V;F,17.2,0x00c000,-34.7,0.00e-0
1663916516,C;S;V;F,17.5,0x00c000,-34.7,0.00e-0
1663916517,C;S;V;F,17.4,0x00c000,-34.8,0.00e-0
1663916518,C;S;V;F,17.2,0x00c000,-35.1,0.00e-0
1663916519,C;S;V;F,17.1,0x00c000,-35.1,0.00e-0
1663916520,,16.9,0x00c000,-35.5,
1663916521,C;S;V;F,16.9,0x00c000,-35.6,0.00e-0
1663916522,C;S;V;F,16.4,0x00c000,-36.0,0.00e-0
1663916523,C;S;V;F,16.4,0x00c000,-36.3,0.00e-0
1663916524,C;S;V;F,,0x00c000,-36.3,0.00e-0
1663916525,C;S;V;F,15.9,0x00c000,,0.00e-0
1663916526,C;S;V;F,16.0,0x00c000,-36.5,0.00e-0
1663916528,C;S;V;F,15.9,0x00c000,-36.4,0.00e-0
1663916529,C;S;V;F,15.8,0x00c000,-36.5,0.00e-0
1663916530,C;S;V;F,15.8,0x00c000,-36.4,0.00e-0
1663916531,,16.0,0x00c000,-36.4,
1663916532,C;S;V;F,15.9,0x00c000,-36.4,0.00e-0
1663916533,C;S;V;F,15.8,0x00c000,-36.5,0.00e-0
1663916534,C;S;V;F,,0x00c000,-36.8,0.00e-0
1663916535,C;S;V;F,15.6,0x00c000,,0.00e-0
1663916536,C;S;V;F,15.3,0x00c000,-37.1,0.00e-0
1663916537,C;S;V;F,15.2,0x00c000,-37.4,0.00e-0
1663916538,C;S;V;F,15.1,0x00c000,-37.3,0.00e-0
1663916539,C;S;V;F,15.2,0x00c000,-37.2,0.00e-0
1663916540,C;S;V;F,15.7,0x00c000,-36.7,0.00e-0
1663916541,,15.9,0x00c000,-36.4,
1663916542,C;S;V;F,,0x00c000,-36.3,0.00e-0
1663916543,C;S;V;F,15.8,0x00c000,-36.4,0.00e-0
1663916544,C;S;V;F,15.9,0x00c000,,0.00e-0
1663916545,C;S;V;F,15.6,0x00c000,-36.6,0.00e-0
1663916546,C;S;V;F,15.5,0x00c000,-36.5,0.00e-0
1663916547,C;S;V;F,15.4,0x00c000,-36.8,0.00e-0
1663916548,C;S;V;F,15.4,0x00c000,-36.5,0.00e-0
1663916549,C;S;V;F,15.4,0x00c000,-36.8,0.00e-0
1663916550,C;S;V;F,15.5,0x00c000,-36.7,0.00e-0
1663916551,C;S;V;F,15.1,0x00c000,-36.8,
1663916552,C;S;V;F,15.1,0x00c000,-36.8,0.00e-0
1663916553,,15.2,0x00c000,-36.7,0.00e-0
1663916554,C;S;V;F,,0x00c000,-36.9,0.00e-0
1663916555,C;S;V;F,15.0,0x00c000,-37.2,0.00e-0
1663916556,C;S;V;F,14.7,0x00c000,,0.00e-0
1663916557,C;S;V;F,14.0,0x00c000,-37.7,0.00e-0
1663916558,C;S;V;F,13.9,0x00c000,-38.0,0.00e-0
1663916559,C;S;V;F,13.6,0x00c000,-38.4,0.00e-0
1663916560,C;S;V;F,13.0,0x00c000,-38.7,0.00e-0
1663916561,C;S;V;F,12.8,0x00c000,-39.2,0.00e-0
1663916562,C;S;V;F,12.7,0x00c000,-39.4,3.03e-7
1663916563,C;S;V;F,12.4,0x00c000,-39.6,1.05e-6
1663916564,,11.7,0x00c000,-39.9,
1663916565,C;S;V;F,11.9,0x00c000,-40.1,3.32e-6
1663916566,C;S;V;F,,0x00c000,-39.9,4.53e-6
1663916567,C;S;V;F,11.8,0x00c000,,4.68e-6
1663916568,C;S;V;F,12.2,0x00c000,-39.9,3.78e-6
1663916569,C;S;V;F,12.0,0x00c000,-40.0,3.32e-6
1663916570,C;S;V;F,11.8,0x00c000,-40.2,4.68e-6
1663916571,C;S;V;F,11.7,0x00c000,-40.4,5.74e-6
1663916572,C;S;V;F,11.4,0x00c000,-40.3,9.69e-6
1663916573,C;S;V;F,11.8,0x00c000,-40.2,1.16e-5
1663916574,C;S;V;F,11.8,0x00c000,-39.9,
1663916575,,12.2,0x00c000,-39.9,6.95e-6
1663916576,C;S;V;F,12.7,0x00c000,-39.5,3.32e-6
1663916577,C;S;V;F,12.7,0x00c000,-39.2,1.96e-6
1663916578,C;S;V;F,,0x00c000,-39.2,7.57e-7
1663916579,C;S;V;F,12.6,0x00c000,,4.54e-7
1663916580,C;S;V;F,12.7,0x00c000,-39.5,7.57e-7
1663916581,C;S;V;F,12.3,0x00c000,-39.6,1.21e-6
1663916582,C;S;V;F,11.9,0x00c000,-39.6,2.72e-6
1663916583,C;S;V;F,12.0,0x00c000,-39.8,3.63e-6
1663916584,C;S;V;F,12.1,0x00c000,-39.6,3.93e-6
1663916585,C;S;V;F,12.2,0x00c000,-39.4,3.02e-6
1663916586,C;S;V;F,12.5,0x00c000,-39.1,1.66e-6
1663916587,C;S;V;F,13.0,0x00c000,-38.9,6.06e-7
1663916588,C;S;V;F,12.9,0x00c000,-38.8,1.51e-7
1663916591,C;S;V;F,12.4,0x00c000,-39.4,9.09e-7
1663916592,C;S;V;F,12.0,0x00c000,-39.4,2.11e-6
1663916593,C;S;V;F,12.1,0x00c000,-39.5,2.57e-6
1663916594,C;S;V;F,12.1,0x00c000,-39.4,2.87e-6
1663916595,C;S;V;F,12.3,0x00c000,-39.1,2.57e-6
1663916596,C;S;V;F,12.2,0x00c000,-39.3,2.42e-6
1663916597,C;S;V;F,12.1,0x00c000,-39.6,2.87e-6
1663916598,C;S;V;F,11.9,0x00c000,-39.7,
1663916599,,10.8,0x00c000,-40.3,4.38e-6
1663916600,C;S;V;F,10.1,0x00c000,-40.8,1.43e-5
1663916601,C;S;V;F,9.8,0x00c000,-41.2,3.88e-5
1663916602,C;S;V;F,,0x00c000,-41.1,1.29e-4
1663916603,C;S;V;F,9.7,0x00c000,,1.81e-4
1663916604,C;S;V;F,10.1,0x00c000,-40.9,1.59e-4
1663916605,C;S;V;F,10.5,0x00c000,-40.3,7.40e-5
1663916606,C;S;V;F,10.9,0x00c000,-40.0,3.98e-5
1663916607,C;S;V;F,11.1,0x00c000,-39.9,2.49e-5
1663916608,C;S;V;F,11.0,0x00c000,-39.9,2.00e-5
1663916609,C;S;V;F,11.0,0x00c000,-39.9,2.30e-5
1663916610,C;S;V;F,11.2,0x00c000,-39.7,
1663916611,C;S;V;F,11.4,0x00c000,-39.5,1.84e-5
1663916612,,11.8,0x00c000,-39.3,1.43e-5
1663916613,C;S;V;F,11.9,0x00c000,-39.3,1.01e-5
1663916614,C;S;V;F,12.3,0x00c000,-39.2,4.68e-6
1663916615,C;S;V;F,,0x00c000,-39.2,2.57e-6
1663916616,C;S;V;F,12.0,0x00c000,,2.26e-6
1663916617,C;S;V;F,12.2,0x00c000,-39.3,2.87e-6
1663916618,C;S;V;F,12.2,0x00c000,-39.2,2.87e-6
1663916619,C;S;V;F,12.1,0x00c000,-39.4,3.17e-6
1663916620,C;S;V;F,11.9,0x00c000,-39.8,3.63e-6
1663916621,C;S;V;F,11.7,0x00c000,-40.0,5.89e-6
1663916622,C;S;V;F,11.7,0x00c000,-40.1,8.47e-6
1663916623,C;S;V;F,11.7,0x00c000,-39.5,8.01e-6
1663916624,C;S;V;F,12.4,0x00c000,-39.3,
1663916625,,12.8,0x00c000,-38.6,4.38e-6
1663916626,C;S;V;F,13.4,0x00c000,-38.3,4.54e-7
1663916627,C;S;V;F,13.8,0x00c000,-38.0,0.00e-0
1663916628,C;S;V;F,14.0,0x00c000,-38.0,0.00e-0
1663916629,C;S;V;F,,0x00c000,-38.2,0.00e-0
1663916630,C;S;V;F,14.0,0x00c000,,0.00e-0
1663916631,C;S;V;F,13.5,0x00c000,-38.7,0.00e-0
1663916632,C;S;V;F,13.6,0x00c000,-38.8,0.00e-0
1663916633,C;S;V;F,13.4,0x00c000,-38.8,0.00e-0
1663916634,C;S;V;F,13.5,0x00c000,-38.8,0.00e-0
1663916635,C;S;V;F,13.6,0x00c000,-38.8,0.00e-0
1663916636,C;S;V;F,13.7,0x00c000,-38.6,
1663916637,C;S;V;F,13.4,0x00c000,-38.8,0.00e-0
1663916638,,13.5,0x00c000,-38.9,0.00e-0
1663916639,C;S;V;F,13.0,0x00c000,-39.4,0.00e-0
1663916640,C;S;V;F,12.8,0x00c000,-39.6,0.00e-0
1663916641,C;S;V;F,,0x00c000,-39.6,6.06e-7
1663916642,C;S;V;F,12.5,0x00c000,,1.21e-6
1663916643,C;S;V;F,13.0,0x00c000,-39.3,7.57e-7
1663916644,C;S;V;F,13.2,0x00c000,-39.2,1.51e-7
1663916645,C;S;V;F,13.3,0x00c000,-38.9,0.00e-0
1663916646,C;S;V;F,13.4,0x00c000,-38.8,0.00e-0
1663916647,C;S;V;F,13.2,0x00c000,-38.9,0.00e-0
1663916648,C;S;V;F,13.3,0x00c000,-39.3,1.51e-7
1663916649,C;S;V;F,12.8,0x00c000,-39.6,3.03e-7
1663916650,C;S;V;F,12.2,0x00c000,-39.9,
1663916651,,,,,7.57e-7
1663916652,,12.4,0x00c000,-39.7,
1663916653,C;S;V;F,12.6,0x00c000,-39.4,1.81e-6
1663916654,C;S;V;F,,0x00c000,,1.05e-6
1663916655,C;S;V;F,13.1,0x00c000,-38.9,1.51e-7
1663916656,C;S;V;F,13.8,0x00c000,-38.6,0.00e-0
1663916657,C;S;V;F,14.3,0x00c000,-38.0,0.00e-0
1663916658,C;S;V;F,14.3,0x00c000,-37.6,0.00e-0
1663916659,C;S;V;F,14.8,0x00c000,-37.3,0.00e-0
1663916660,C;S;V;F,15.1,0x00c000,-37.2,0.00e-0
1663916661,C;S;V;F,15.1,0x00c000,-37.2,0.00e-0
1663916662,C;S;V;F,14.9,0x00c000,-37.5,0.00e-0
1663916666,C;S;V;F,14.3,0x00c000,-38.0,0.00e-0
1663916667,C;S;V;F,14.4,0x00c000,-38.0,
1663916668,,14.7,0x00c000,-37.9,0.00e-0
1663916669,C;S;V;F,14.7,0x00c000,-37.6,0.00e-0
1663916670,C;S;V;F,15.1,0x00c000,-37.4,0.00e-0
1663916671,C;S;V;F,15.1,0x00c000,-37.3,0.00e-0
1663916672,C;S;V;F,,0x00c000,-37.1,0.00e-0
1663916673,C;S;V;F,15.4,0x00c000,-36.9,0.00e-0
1663916674,C;S;V;F,15.4,0x00c000,,0.00e-0
1663916675,C;S;V;F,15.6,0x00c000,-36.8,0.00e-0
1663916676,C;S;V;F,15.4,0x00c000,-37.1,0.00e-0
1663916677,C;S;V;F,15.3,0x00c000,-37.3,0.00e-0
1663916678,C;S;V;F,14.7,0x00c000,-37.9,0.00e-0
1663916679,C;S;V;F,14.2,0x00c000,-38.3,0.00e-0
1663916680,C;S;V;F,13.9,0x00c000,-38.7,0.00e-0
1663916681,C;S;V;F,14.0,0x00c000,-38.4,0.00e-0
1663916682,C;S;V;F,14.3,0x00c000,-37.9,
1663916683,,15.1,0x00c000,-37.5,0.00e-0
1663916684,C;S;V;F,15.1,0x00c000,-37.3,0.00e-0
1663916685,C;S;V;F,15.1,0x00c000,-37.3,0.00e-0
1663916686,C;S;V;F,,0x00c000,-37.2,0.00e-0
1663916687,C;S;V;F,15.3,0x00c000,-37.2,0.00e-0
1663916688,C;S;V;F,15.1,0x00c000,-37.4,0.00e-0
1663916689,C;S;V;F,15.1,0x00c000,,0.00e-0
1663916690,C;S;V;F,15.0,0x00c000,-37.6,0.00e-0
1663916691,C;S;V;F,14.7,0x00c000,-37.8,0.00e-0
1663916692,C;S;V;F,14.6,0x00c000,-37.9,0.00e-0
1663916693,C;S;V;F,14.2,0x00c000,-38.4,0.00e-0
1663916694,,14.1,0x00c000,-38.7,
1663916695,C;S;V;F,14.2,0x00c000,-38.5,0.00e-0
1663916696,C;S;V;F,14.2,0x00c000,-38.4,0.00e-0
1663916697,C;S;V;F,,0x00c000,-38.4,0.00e-0
1663916698,C;S;V;F,14.2,0x00c000,,0.00e-0
1663916699,C;S;V;F,14.6,0x00c000,-38.0,0.00e-0
1663916700,C;S;V;F,14.9,0x00c000,-37.6,0.00e-0
1663916701,C;S;V;F,15.2,0x00c000,-37.1,0.00e-0
1663916702,C;S;V;F,15.8,0x00c000,-36.6,0.00e-0
1663916703,C;S;V;F,16.1,0x00c000,-36.1,
1663916704,,16.2,0x00c000,-36.0,0.00e-0
1663916705,C;S;V;F,16.3,0x00c000,-36.2,0.00e-0
1663916706,C;S;V;F,16.1,0x00c000,-36.4,0.00e-0
1663916707,C;S;V;F,,0x00c000,-36.7,0.00e-0
1663916708,C;S;V;F,15.8,0x00c000,-36.7,0.00e-0
1663916709,C;S;V;F,15.7,0x00c000,-36.7,0.00e-0
1663916710,C;S;V;F,15.6,0x00c000,,0.00e-0
1663916711,C;S;V;F,15.0,0x00c000,-37.2,0.00e-0
1663916712,C;S;V;F,14.8,0x00c000,-37.5,0.00e-0
1663916713,C;S;V;F,14.5,0x00c000,-38.0,0.00e-0
1663916714,C;S;V;F,14.7,0x00c000,-37.9,0.00e-0
1663916716,C;S;V;F,16.1,0x00c000,-35.9,0.00e-0
1663916717,C;S;V;F,16.5,0x00c000,-35.2,0.00e-0
1663916718,,16.8,0x00c000,-35.7,
1663916719,C;S;V;F,16.4,0x00c000,-36.1,0.00e-0
1663916720,C;S;V;F,16.1,0x00c000,-36.4,0.00e-0
1663916721,C;S;V;F,16.0,0x00c000,-36.4,0.00e-0
1663916722,C;S;V;F,,0x00c000,-35.6,0.00e-0
1663916723,C;S;V;F,16.3,0x00c000,-35.0,0.00e-0
1663916724,C;S;V;F,16.9,0x00c000,,0.00e-0
1663916725,C;S;V;F,16.8,0x00c000,-35.0,0.00e-0
1663916726,C;S;V;F,16.2,0x00c000,-35.6,0.00e-0
1663916727,C;S;V;F,15.5,0x00c000,-37.0,0.00e-0
1663916728,C;S;V;F,14.5,0x00c000,-38.0,0.00e-0
1663916729,C;S;V;F,14.4,0x00c000,-38.0,0.00e-0
1663916730,C;S;V;F,14.8,0x00c000,-37.6,0.00e-0
1663916731,C;S;V;F,15.5,0x00c000,-36.5,
1663916732,,16.2,0x00c000,-36.2,0.00e-0
1663916733,C;S;V;F,16.1,0x00c000,-36.4,0.00e-0
1663916734,C;S;V;F,,0x00c000,-36.6,0.00e-0
1663916735,C;S;V;F,15.9,0x00c000,,0.00e-0
1663916736,C;S;V;F,15.7,0x00c000,-36.8,0.00e-0
1663916737,C;S;V;F,16.3,0x00c000,-36.4,0.00e-0
1663916738,C;S;V;F,16.7,0x00c000,-35.5,0.00e-0
1663916739,C;S;V;F,17.0,0x00c000,-35.2,0.00e-0
1663916740,C;S;V;F,17.0,0x00c000,-35.2,0.00e-0
1663916741,C;S;V;F,16.5,0x00c000,-35.9,
1663916742,C;S;V;F,15.9,0x00c000,-36.8,0.00e-0
1663916743,,15.7,0x00c000,-36.8,0.00e-0
1663916744,C;S;V;F,15.9,0x00c000,-36.1,0.00e-0
1663916745,C;S;V;F,16.7,0x00c000,-35.2,0.00e-0
1663916746,C;S;V;F,,0x00c000,-34.7,0.00e-0
1663916747,C;S;V;F,17.1,0x00c000,-35.3,0.00e-0
1663916748,C;S;V;F,17.1,0x00c000,,0.00e-0
1663916749,C;S;V;F,16.5,0x00c000,-35.7,0.00e-0
1663916750,C;S;V;F,16.2,0x00c000,-36.4,0.00e-0
1663916751,C;S;V;F,16.1,0x00c000,-36.4,0.00e-0
1663916752,C;S;V;F,16.3,0x00c000,-35.9,0.00e-0
1663916753,C;S;V;F,16.8,0x00c000,-35.6,0.00e-0
1663916754,C;S;V;F,17.0,0x00c000,-34.9,0.00e-0
1663916755,C;S;V;F,17.1,0x00c000,-34.9,0.00e-0
1663916756,C;S;V;F,17.1,0x00c000,-35.2,0.00e-0
1663916757,,16.5,0x00c000,-35.7,
1663916758,C;S;V;F,16.3,0x00c000,-36.2,0.00e-0
1663916759,C;S;V;F,16.2,0x00c000,-35.9,0.00e-0
1663916760,C;S;V;F,,0x00c000,-35.6,0.00e-0
1663916761,C;S;V;F,16.7,0x00c000,,0.00e-0
1663916762,C;S;V;F,17.4,0x00c000,-34.8,0.00e-0
1663916763,C;S;V;F,17.4,0x00c000,-34.5,0.00e-0
1663916764,C;S;V;F,17.7,0x00c000,-34.3,0.00e-0
1663916765,C;S;V;F,17.6,0x00c000,-34.3,0.00e-0
1663916766,C;S;V;F,17.4,0x00c000,-34.4,0.00e-0
1663916767,C;S;V;F,17.5,0x00c000,-34.5,0.00e-0
1663916768,C;S;V;F,17.5,0x00c000,-34.4,0.00e-0
1663916769,C;S;V;F,17.8,0x00c000,-34.1,0.00e-0
1663916770,,17.6,0x00c000,-33.9,
1663916771,C;S;V;F,17.8,0x00c000,-33.8,0.00e-0
1663916772,C;S;V;F,17.9,0x00c000,-33.5,0.00e-0
1663916773,C;S;V;F,,0x00c000,-33.6,0.00e-0
1663916774,C;S;V;F,18.2,0x00c000,,0.00e-0
1663916775,C;S;V;F,18.2,0x00c000,-33.7,0.00e-0
1663916776,C;S;V;F,17.7,0x00c000,-33.8,0.00e-0
1663916779,C;S;V;F,17.8,0x00c000,-33.5,0.00e-0
1663916780,,17.9,0x00c000,-33.6,
1663916781,C;S;V;F,18.1,0x00c000,-33.5,0.00e-0
1663916782,C;S;V;F,18.1,0x00c000,-33.5,0.00e-0
1663916783,C;S;V;F,18.2,0x00c000,-33.5,0.00e-0
1663916784,C;S;V;F,,0x00c000,-33.4,0.00e-0
1663916785,C;S;V;F,18.2,0x00c000,,0.00e-0
1663916786,C;S;V;F,18.1,0x00c000,-33.6,0.00e-0
1663916787,C;S;V;F,18.2,0x00c000,-33.3,0.00e-0
1663916788,C;S;V;F,18.1,0x00c000,-33.4,0.00e-0
1663916789,C;S;V;F,18.2,0x00c000,-33.3,0.00e-0
1663916790,C;S;V;F,18.4,0x00c000,-33.2,0.00e-0
1663916791,C;S;V;F,18.4,0x00c000,-33.0,0.00e-0
1663916792,C;S;V;F,18.5,0x00c000,-33.1,0.00e-0
1663916793,C;S;V;F,18.4,0x00c000,-33.1,
1663916794,,18.3,0x00c000,-33.2,0.00e-0
1663916795,C;S;V;F,18.0,0x00c000,-33.7,0.00e-0
1663916796,C;S;V;F,17.8,0x00c000,-33.9,0.00e-0
1663916797,C;S;V;F,,0x00c000,-34.2,0.00e-0
1663916798,C;S;V;F,17.8,0x00c000,,0.00e-0
1663916799,C;S;V;F,17.6,0x00c000,-34.2,0.00e-0
1663916800,C;S;V;F,17.4,0x00c000,-34.4,0.00e-0
1663916801,C;S;V;F,17.4,0x00c000,-34.4,0.00e-0
1663916802,C;S;V;F,17.6,0x00c000,-34.2,0.00e-0
1663916803,C;S;V;F,17.6,0x00c000,-34.2,0.00e-0
1663916804,C;S;V;F,17.6,0x00c000,-34.0,0.00e-0
1663916805,C;S;V;F,17.8,0x00c000,-34.1,0.00e-0
1663916806,,17.8,0x00c000,-34.1,
1663916807,C;S;V;F,17.5,0x00c000,-34.2,0.00e-0
1663916808,C;S;V;F,17.5,0x00c000,-34.3,0.00e-0
1663916809,C;S;V;F,,0x00c000,-34.3,0.00e-0
1663916810,C;S;V;F,17.6,0x00c000,-34.3,0.00e-0
1663916811,C;S;V;F,17.3,0x00c000,,0.00e-0
1663916812,C;S;V;F,17.5,0x00c000,-34.1,0.00e-0
1663916813,C;S;V;F,17.6,0x00c000,-34.3,0.00e-0
1663916814,C;S;V;F,17.6,0x00c000,-34.4,0.00e-0
1663916815,C;S;V;F,17.2,0x00c000,-34.2,0.00e-0
1663916816,C;S;V;F,17.2,0x00c000,-34.5,0.00e-0
1663916817,C;S;V;F,16.8,0x00c000,-34.7,0.00e-0
1663916818,C;S;V;F,16.9,0x00c000,-34.8,
1663916819,,16.7,0x00c000,-34.8,0.00e-0
1663916820,C;S;V;F,16.9,0x00c000,-34.8,0.00e-0
1663916821,C;S;V;F,17.1,0x00c000,-34.9,0.00e-0
1663916822,C;S;V;F,,0x00c000,-34.8,0.00e-0